| time (UTC) | temp F | wind direction | speed MPH | gust MPH | rain 1hr in | rain 24hr in | rain mn in | humidity % | barometer mb |
| 20260503013054 | 71 | 269 | 0.0 | 0.0 | 0.00 | 0.00 | 0.00 | 45 | 1016.4 |
| 20260503011645 | 72 | 269 | 0.0 | 0.0 | 0.00 | 0.00 | 0.00 | 43 | 1016.4 |
| 20260503010045 | 74 | 269 | 0.0 | 0.0 | 0.00 | 0.00 | 0.00 | 41 | 1016.3 |
| 20260503004547 | 74 | 269 | 0.0 | 0.0 | 0.00 | 0.00 | 0.00 | 39 | 1016.3 |
| 20260503003049 | 75 | 269 | 0.0 | 3.0 | 0.00 | 0.00 | 0.00 | 38 | 1016.2 |
| 20260503001549 | 76 | 261 | 0.0 | 4.0 | 0.00 | 0.00 | 0.00 | 35 | 1016.2 |
| 20260503000048 | 78 | 259 | 0.0 | 4.0 | 0.00 | 0.00 | 0.00 | 32 | 1016.1 |
| 20260502234553 | 79 | 270 | 0.0 | 3.0 | 0.00 | 0.00 | 0.00 | 31 | 1016.2 |
| 20260502233040 | 79 | 281 | 1.0 | 4.0 | 0.00 | 0.00 | 0.00 | 30 | 1016.1 |
| 20260502231539 | 79 | 101 | 0.0 | 3.0 | 0.00 | 0.00 | 0.00 | 30 | 1016.2 |
| 20260502230038 | 79 | 269 | 1.0 | 4.0 | 0.00 | 0.00 | 0.00 | 29 | 1016.4 |
| 20260502224536 | 79 | 98 | 0.0 | 4.0 | 0.00 | 0.00 | 0.00 | 29 | 1016.4 |
| 20260502223040 | 80 | 9 | 0.0 | 4.0 | 0.00 | 0.00 | 0.00 | 30 | 1016.6 |
| 20260502221532 | 79 | 296 | 1.0 | 9.0 | 0.00 | 0.00 | 0.00 | 30 | 1016.6 |
| 20260502220036 | 79 | 298 | 1.0 | 8.0 | 0.00 | 0.00 | 0.00 | 30 | 1016.6 |
| 20260502214535 | 79 | 245 | 0.0 | 5.0 | 0.00 | 0.00 | 0.00 | 30 | 1016.7 |
| 20260502213030 | 79 | 62 | 0.0 | 8.0 | 0.00 | 0.00 | 0.00 | 32 | 1017.0 |
| 20260502211533 | 79 | 360 | 0.0 | 3.0 | 0.00 | 0.00 | 0.00 | 30 | 1017.1 |
| 20260502210025 | 78 | 261 | 0.0 | 7.0 | 0.00 | 0.00 | 0.00 | 32 | 1017.4 |
| 20260502204536 | 77 | 26 | 0.0 | 6.0 | 0.00 | 0.00 | 0.00 | 33 | 1017.7 |
| 20260502203035 | 78 | 263 | 0.0 | 6.0 | 0.00 | 0.00 | 0.00 | 33 | 1017.7 |
| 20260502201521 | 77 | 130 | 0.0 | 3.0 | 0.00 | 0.00 | 0.00 | 32 | 1018.1 |
| 20260502200020 | 77 | 108 | 0.0 | 8.0 | 0.00 | 0.00 | 0.00 | 32 | 1017.9 |
| 20260502194526 | 77 | 90 | 0.0 | 6.0 | 0.00 | 0.00 | 0.00 | 33 | 1018.2 |
| 20260502193017 | 76 | 119 | 0.0 | 2.0 | 0.00 | 0.00 | 0.00 | 32 | 1018.4 |
| 20260502191515 | 75 | 30 | 0.0 | 6.0 | 0.00 | 0.00 | 0.00 | 32 | 1018.6 |
| 20260502190018 | 76 | 17 | 0.0 | 5.0 | 0.00 | 0.00 | 0.00 | 34 | 1018.5 |
| 20260502184511 | 75 | 76 | 0.0 | 3.0 | 0.00 | 0.00 | 0.00 | 34 | 1018.8 |
| 20260502183010 | 75 | 255 | 1.0 | 5.0 | 0.00 | 0.00 | 0.00 | 33 | 1019.1 |
| 20260502181508 | 74 | 5 | 0.0 | 1.0 | 0.00 | 0.00 | 0.00 | 33 | 1019.3 |
| 20260502163109 | 71 | 90 | 0.0 | 5.0 | 0.00 | 0.00 | 0.00 | 39 | 1020.2 |
| 20260502161618 | 70 | 284 | 1.0 | 7.0 | 0.00 | 0.00 | 0.00 | 43 | 1020.1 |
| 20260502151540 | 66 | 69 | 0.0 | 1.0 | 0.00 | 0.00 | 0.00 | 52 | 1020.0 |
| 20260502123008 | 51 | 138 | 0.0 | 0.0 | 0.00 | 0.00 | 0.00 | 91 | 1018.8 |
| 20260502121505 | 51 | 138 | 0.0 | 0.0 | 0.00 | 0.00 | 0.00 | 90 | 1018.3 |
| 20260502114503 | 51 | 138 | 0.0 | 0.0 | 0.00 | 0.01 | 0.00 | 90 | 1018.1 |
| 20260502113135 | 51 | 138 | 0.0 | 0.0 | 0.00 | 0.01 | 0.00 | 90 | 1017.6 |
| 20260502111558 | 51 | 138 | 0.0 | 0.0 | 0.00 | 0.01 | 0.00 | 90 | 1017.5 |
| 20260502110058 | 51 | 138 | 0.0 | 0.0 | 0.00 | 0.01 | 0.00 | 90 | 1017.3 |
| 20260502104556 | 51 | 138 | 0.0 | 0.0 | 0.00 | 0.01 | 0.00 | 89 | 1017.4 |
| 20260502103054 | 51 | 138 | 0.0 | 0.0 | 0.00 | 0.01 | 0.00 | 89 | 1017.2 |
| 20260502101553 | 51 | 138 | 0.0 | 0.0 | 0.00 | 0.01 | 0.00 | 89 | 1017.1 |
| 20260502070040 | 53 | 138 | 0.0 | 0.0 | 0.00 | 0.01 | 0.00 | 86 | 1016.8 |
| 20260502064545 | 54 | 138 | 0.0 | 0.0 | 0.00 | 0.01 | 0.00 | 86 | 1016.9 |
| 20260502063035 | 54 | 138 | 0.0 | 0.0 | 0.00 | 0.01 | 0.00 | 85 | 1016.9 |
| 20260502061531 | 54 | 138 | 0.0 | 0.0 | 0.00 | 0.01 | 0.00 | 85 | 1016.9 |
| 20260502060032 | 55 | 138 | 0.0 | 0.0 | 0.00 | 0.01 | 0.00 | 85 | 1016.9 |
| 20260502054534 | 55 | 138 | 0.0 | 0.0 | 0.00 | 0.01 | 0.00 | 84 | 1016.8 |
| 20260502053027 | 55 | 138 | 0.0 | 0.0 | 0.00 | 0.01 | 0.00 | 84 | 1017.0 |
| 20260502051529 | 56 | 138 | 0.0 | 0.0 | 0.00 | 0.01 | 0.00 | 83 | 1017.0 |
| 20260502050023 | 56 | 138 | 0.0 | 0.0 | 0.00 | 0.01 | 0.00 | 82 | 1016.9 |
| 20260502044521 | 57 | 138 | 0.0 | 0.0 | 0.00 | 0.01 | 0.01 | 81 | 1016.9 |
| 20260502043024 | 57 | 138 | 0.0 | 0.0 | 0.00 | 0.01 | 0.01 | 80 | 1016.9 |
| 20260502041630 | 58 | 138 | 0.0 | 0.0 | 0.00 | 0.01 | 0.01 | 79 | 1016.8 |
| 20260502040016 | 58 | 138 | 0.0 | 0.0 | 0.00 | 0.01 | 0.01 | 78 | 1016.7 |
| 20260502034516 | 59 | 138 | 0.0 | 0.0 | 0.00 | 0.01 | 0.01 | 77 | 1016.7 |
| 20260502033014 | 59 | 138 | 0.0 | 0.0 | 0.00 | 0.01 | 0.01 | 76 | 1016.8 |
| 20260502031512 | 60 | 138 | 0.0 | 0.0 | 0.00 | 0.01 | 0.01 | 75 | 1016.4 |
| 20260502030011 | 60 | 138 | 0.0 | 0.0 | 0.00 | 0.01 | 0.01 | 74 | 1016.2 |
| 20260502024514 | 60 | 138 | 0.0 | 0.0 | 0.00 | 0.01 | 0.01 | 73 | 1016.3 |
| 20260502023010 | 60 | 138 | 0.0 | 0.0 | 0.00 | 0.01 | 0.01 | 72 | 1016.1 |
| 20260502021506 | 61 | 138 | 0.0 | 0.0 | 0.00 | 0.01 | 0.01 | 71 | 1015.8 |
| 20260502020005 | 61 | 138 | 0.0 | 0.0 | 0.00 | 0.01 | 0.01 | 71 | 1015.6 |
| 20260502014506 | 61 | 138 | 0.0 | 0.0 | 0.00 | 0.01 | 0.01 | 70 | 1015.4 |